Location: Belfast
(54.5830°N, 5.9330°W)
Time: 13:55:07
(UTC+01:00)

ISS - Pass Details

Date: 21 May 2018
Orbit: 402 x 407 km, 51.6° (Epoch: 22 May)

Event Time Altitude Azimuth Distance (km) Brightness Sun altitude
Rises 02:53:31 0° 273° (W) 2,321 -0.2 -12.6°
Reaches altitude 10° 02:55:40 10° 265° (W) 1,460 -1.3 -12.5°
Maximum altitude 02:58:44 38° 195° (SSW) 628 -3.4 -12.4°
Drops below altitude 10° 03:01:48 10° 125° (SE) 1,456 -1.1 -12.2°
Sets 03:03:57 0° 118° (ESE) 2,314 0.0 -12.0°
